Location: Newark
(34.9500°N, 139.9667°E)
Time: 20:14:20
(UTC+00:00)

Courier 1B - All Passes

Search period start: 15 December 2019 00:00
Search period end: 25 December 2019 00:00
Orbit: 963 x 1209 km, 28.3° (Epoch: 15 December)

Date Brightness Start Highest point End Pass type
(mag) Time Alt. Az. Time Alt. Az. Time Alt. Az.
15 Dec - 08:29:18 10° SSW 08:34:21 22° SSE 08:39:37 10° ESE visible
15 Dec - 10:21:15 10° WSW 10:27:48 44° SSE 10:34:45 10° E visible
15 Dec - 12:14:39 10° WSW 12:21:38 52° S 12:29:01 10° ESE visible
15 Dec - 14:08:44 10° W 14:15:30 37° SSW 14:22:31 10° SE night (unlit)
15 Dec - 16:04:28 10° WSW 16:09:06 17° SSW 16:13:46 10° S night (unlit)
16 Dec - 07:36:45 10° S 07:40:49 17° SSE 07:44:58 10° ESE daylight
16 Dec - 09:27:52 10° SW 09:34:05 38° SSE 09:40:40 10° E visible
16 Dec - 11:21:00 10° WSW 11:27:49 51° S 11:35:04 10° ESE visible
16 Dec - 13:14:52 10° W 13:21:42 42° SSW 13:28:51 10° SE night (unlit)
16 Dec - 15:09:51 10° WSW 15:15:22 22° SSW 15:20:59 10° SSE night (unlit)
17 Dec - 06:45:01 10° S 06:47:17 12° SSE 06:49:34 10° SE daylight
17 Dec - 08:34:38 10° SW 08:40:26 32° SSE 08:46:33 10° E visible
17 Dec - 10:27:25 10° WSW 10:34:02 50° S 10:41:06 10° ESE visible
17 Dec - 12:21:06 10° W 12:27:53 46° S 12:35:05 10° ESE visible
17 Dec - 14:15:35 10° WSW 14:21:37 27° SSW 14:27:51 10° SSE night (unlit)
18 Dec - 07:41:33 10° SSW 07:46:51 26° SSE 07:52:21 10° ESE daylight
18 Dec - 09:33:54 10° WSW 09:40:18 46° S 09:47:07 10° E visible
18 Dec - 11:27:23 10° WSW 11:34:06 49° S 11:41:14 10° ESE visible
18 Dec - 13:21:34 10° WSW 13:27:52 32° SSW 13:34:26 10° SE night (unlit)
18 Dec - 15:18:14 10° SW 15:21:22 13° SSW 15:24:33 10° S night (unlit)
19 Dec - 06:48:44 10° SSW 06:53:18 20° SSE 06:58:00 10° ESE daylight
19 Dec - 08:40:28 10° SW 08:46:38 41° SSE 08:53:07 10° E visible
19 Dec - 10:33:45 10° WSW 10:40:20 50° S 10:47:21 10° ESE visible
19 Dec - 12:27:41 10° W 12:34:06 37° SSW 12:40:53 10° SE visible
19 Dec - 14:23:08 10° WSW 14:27:40 17° SSW 14:32:19 10° S night (unlit)
20 Dec - 05:56:18 10° S 05:59:46 15° SSE 06:03:18 10° ESE daylight
20 Dec - 07:47:08 10° SW 07:53:00 35° SSE 07:59:06 10° E visible
20 Dec - 09:40:10 10° WSW 09:46:36 50° S 09:53:26 10° ESE visible
20 Dec - 11:33:55 10° W 11:40:21 41° SSW 11:47:12 10° SE visible
20 Dec - 13:28:41 10° WSW 13:33:58 22° SSW 13:39:27 10° SSE night (unlit)
21 Dec - 05:05:12 10° SSE 05:06:16 10° SSE 05:07:22 10° SE daylight
21 Dec - 06:53:55 10° SW 06:59:25 29° SSE 07:05:04 10° ESE daylight
21 Dec - 08:46:37 10° WSW 08:52:54 47° S 08:59:32 10° ESE visible
21 Dec - 10:40:12 10° W 10:46:37 45° S 10:53:27 10° ESE visible
21 Dec - 12:34:33 10° WSW 12:40:16 26° SSW 12:46:15 10° SSE visible
22 Dec - 06:00:52 10° SSW 06:05:52 24° SSE 06:10:57 10° ESE daylight
22 Dec - 07:53:07 10° WSW 07:59:15 44° S 08:05:37 10° E visible
22 Dec - 09:46:34 10° WSW 09:52:55 48° S 09:59:38 10° ESE visible
22 Dec - 11:40:37 10° WSW 11:46:34 31° SSW 11:52:50 10° SE visible
22 Dec - 13:37:02 10° SW 13:40:01 13° SSW 13:43:04 10° S night (unlit)
23 Dec - 05:08:03 10° SSW 05:12:20 19° SSE 05:16:38 10° ESE daylight
23 Dec - 06:59:41 10° SW 07:05:37 39° SSE 07:11:44 10° E daylight
23 Dec - 08:52:57 10° WSW 08:59:13 49° S 09:05:49 10° ESE visible
23 Dec - 10:46:48 10° W 10:52:53 36° SSW 10:59:17 10° SE visible
23 Dec - 12:42:06 10° WSW 12:46:22 17° SSW 12:50:46 10° S night (unlit)
24 Dec - 04:15:39 10° S 04:18:49 14° SSE 04:21:57 10° ESE daylight
24 Dec - 06:06:20 10° SW 06:12:03 33° SSE 06:17:49 10° ESE daylight
24 Dec - 07:59:21 10° WSW 08:05:33 48° S 08:12:00 10° ESE visible
24 Dec - 09:53:04 10° W 09:59:12 40° SSW 10:05:39 10° SE visible
24 Dec - 11:47:44 10° WSW 11:52:43 21° SSW 11:57:53 10° SSE visible
